Olivia, MN

8:11 PM CDT on July 23, 2017 (GMT -0500)
Olivia Regional

Weather History for KOVL - March, 2014

Change the Weather History Date:

Monday, March 31, 2014

  Actual Average (KRWF) Record (KRWF)
Temperature  
Mean Temperature 45 °F -  
Max Temperature 60 °F 48 °F 80 °F (1943)
Min Temperature 30 °F 29 °F 0 °F (1969)
Degree Days  
Heating Degree Days 20    
Moisture  
Dew Point 40 °F    
Average Humidity 76    
Maximum Humidity 93    
Minimum Humidity 55    
Precipitation  
Precipitation 0.00 in - - ()
Sea Level Pressure  
Sea Level Pressure 29.44 in    
Wind  
Wind Speed 13 mph (SE)    
Max Wind Speed 31 mph    
Max Gust Speed 43 mph    
Visibility 10 miles    
Events Rain , Thunderstorm    
Averages and records for this station are not official NWS values.
T = Trace of Precipitation, MM = Missing Value Source: NWS Daily Summary

Daily Weather History Graph

Daily Weather History Graph

Search for Another Location

Airport or City:

Trip Planner

Search our weather history database for the weather conditions in past years. The results will help you decide how hot, cold, wet, or windy it might be!

Date:

Astronomy

Mar. 31, 2014 Rise Set
Actual Time 7:02 AM CDT 7:46 PM CDT
Civil Twilight 6:33 AM CDT 8:16 PM CDT
Nautical Twilight 5:58 AM CDT 8:51 PM CDT
Astronomical Twilight 5:21 AM CDT 9:27 PM CDT
Moon 7:24 AM CDT (3/31) 9:10 PM CDT (3/31)
Length of Visible Light 13h 42m
Length of Day
12h 43m
New Moon, 1% of the Moon is Illuminated
Mar 31
New Moon
Apr 7
First Quarter
Apr 15
Full
Apr 22
Last Quarter
Apr 29
New

Hourly Weather History & Observations

Time (CDT) Temp. Windchill Dew Point Humidity Pressure Visibility Wind Dir Wind Speed Gust Speed Precip Events Conditions
12:13 AM 42.8 °F 37.0 °F 37.4 °F 81% 29.67 in 7.0 mi East 10.4 mph - N/A   Clear
12:33 AM 42.8 °F 38.6 °F 37.4 °F 81% 29.67 in 7.0 mi East 6.9 mph - N/A   Clear
12:53 AM 42.8 °F 38.0 °F 37.4 °F 81% 29.67 in 7.0 mi East 8.1 mph - N/A   Clear
1:13 AM 42.8 °F 38.0 °F 37.4 °F 81% 29.66 in 7.0 mi East 8.1 mph - N/A   Clear
1:33 AM 42.8 °F 37.5 °F 37.4 °F 81% 29.65 in 10.0 mi East 9.2 mph - N/A   Clear
1:53 AM 42.8 °F 38.0 °F 35.6 °F 76% 29.64 in 10.0 mi East 8.1 mph - N/A   Clear
2:13 AM 42.8 °F 38.0 °F 35.6 °F 76% 29.64 in 10.0 mi East 8.1 mph - N/A   Clear
2:33 AM 42.8 °F 37.0 °F 35.6 °F 76% 29.63 in 10.0 mi East 10.4 mph - N/A   Clear
2:53 AM 42.8 °F 37.5 °F 35.6 °F 76% 29.62 in 10.0 mi East 9.2 mph - N/A   Clear
3:13 AM 42.8 °F 37.5 °F 35.6 °F 76% 29.61 in 10.0 mi East 9.2 mph - N/A   Clear
3:33 AM 42.8 °F 37.0 °F 35.6 °F 76% 29.60 in 10.0 mi ESE 10.4 mph - N/A   Clear
3:53 AM 42.8 °F 37.5 °F 35.6 °F 76% 29.60 in 10.0 mi ESE 9.2 mph - N/A   Clear
4:13 AM 42.8 °F 37.5 °F 35.6 °F 76% 29.59 in 10.0 mi ESE 9.2 mph - N/A   Clear
4:33 AM 42.8 °F 37.0 °F 35.6 °F 76% 29.58 in 10.0 mi ESE 10.4 mph 16.1 mph N/A   Clear
4:53 AM 42.8 °F 36.6 °F 35.6 °F 76% 29.57 in 10.0 mi ESE 11.5 mph - N/A   Clear
5:13 AM 42.8 °F 37.0 °F 35.6 °F 76% 29.56 in 10.0 mi ESE 10.4 mph - N/A   Clear
5:33 AM 42.8 °F 36.6 °F 35.6 °F 76% 29.56 in 10.0 mi ESE 11.5 mph - N/A   Clear
5:53 AM 42.8 °F 36.2 °F 35.6 °F 76% 29.54 in 10.0 mi ESE 12.7 mph 17.3 mph N/A   Clear
6:13 AM 42.8 °F 36.6 °F 35.6 °F 76% 29.55 in 10.0 mi ESE 11.5 mph - N/A   Clear
6:33 AM 42.8 °F 36.2 °F 35.6 °F 76% 29.54 in 10.0 mi SE 12.7 mph - N/A   Clear
6:53 AM 44.6 °F 38.8 °F 35.6 °F 71% 29.54 in 10.0 mi ESE 11.5 mph - N/A   Mostly Cloudy
7:13 AM 42.8 °F 37.5 °F 35.6 °F 76% 29.54 in 10.0 mi SE 9.2 mph - N/A   Overcast
7:32 AM 44.6 °F 39.2 °F 37.4 °F 76% 29.54 in 10.0 mi SE 10.4 mph - N/A   Overcast
7:53 AM 46.4 °F 39.5 °F 39.2 °F 76% 29.54 in 10.0 mi SSE 17.3 mph - N/A   Overcast
8:13 AM 50.0 °F - 41.0 °F 71% 29.53 in 10.0 mi SE 17.3 mph 25.3 mph N/A Rain Light Rain
8:33 AM 46.4 °F 39.0 °F 41.0 °F 81% 29.50 in 10.0 mi SE 19.6 mph 25.3 mph N/A Rain Light Rain
8:53 AM 50.0 °F - 41.0 °F 71% 29.47 in 10.0 mi SE 20.7 mph 26.5 mph N/A   Clear
9:13 AM 50.0 °F - 42.8 °F 76% 29.49 in 10.0 mi SE 17.3 mph 25.3 mph N/A   Clear
9:33 AM 50.0 °F - 42.8 °F 76% 29.51 in 10.0 mi SE 17.3 mph 21.9 mph N/A   Scattered Clouds
9:53 AM 50.0 °F - 42.8 °F 76% 29.50 in 10.0 mi SE 21.9 mph 27.6 mph N/A   Mostly Cloudy
10:13 AM 50.0 °F - 42.8 °F 76% 29.49 in 10.0 mi SE 17.3 mph 24.2 mph N/A   Overcast
10:33 AM 50.0 °F - 42.8 °F 76% 29.49 in 10.0 mi SE 18.4 mph 23.0 mph N/A   Overcast
10:53 AM 50.0 °F - 42.8 °F 76% 29.48 in 10.0 mi SE 15.0 mph - N/A   Overcast
11:13 AM 50.0 °F - 42.8 °F 76% 29.47 in 10.0 mi SE 13.8 mph 20.7 mph N/A   Overcast
11:33 AM 53.6 °F - 46.4 °F 77% 29.47 in 10.0 mi SE 17.3 mph 24.2 mph N/A   Overcast
11:53 AM 53.6 °F - 46.4 °F 77% 29.45 in 10.0 mi SE 23.0 mph 28.8 mph N/A   Mostly Cloudy
12:12 PM 53.6 °F - 46.4 °F 77% 29.44 in 10.0 mi SE 23.0 mph 27.6 mph N/A   Overcast
12:33 PM 53.6 °F - 44.6 °F 72% 29.42 in 10.0 mi SE 20.7 mph 29.9 mph N/A   Mostly Cloudy
12:53 PM 55.4 °F - 46.4 °F 72% 29.41 in 10.0 mi SE 24.2 mph 31.1 mph N/A   Scattered Clouds
1:12 PM 57.2 °F - 46.4 °F 67% 29.41 in 10.0 mi SE 23.0 mph 32.2 mph N/A   Scattered Clouds
1:33 PM 57.2 °F - 48.2 °F 72% 29.40 in 10.0 mi SE 19.6 mph 28.8 mph N/A   Mostly Cloudy
1:53 PM 57.2 °F - 48.2 °F 72% 29.39 in 10.0 mi SE 16.1 mph 23.0 mph N/A   Overcast
2:13 PM 57.2 °F - 48.2 °F 72% 29.37 in 10.0 mi ESE 16.1 mph 25.3 mph N/A   Overcast
2:33 PM 57.2 °F - 48.2 °F 72% 29.36 in 10.0 mi ESE 18.4 mph 24.2 mph N/A   Overcast
2:53 PM 57.2 °F - 48.2 °F 72% 29.34 in 10.0 mi ESE 12.7 mph - N/A   Overcast
3:13 PM 57.2 °F - 50.0 °F 77% 29.33 in 10.0 mi ESE 16.1 mph 23.0 mph N/A   Overcast
3:33 PM 59.0 °F - 50.0 °F 72% 29.31 in 10.0 mi East 17.3 mph 23.0 mph N/A   Scattered Clouds
3:53 PM 59.0 °F - 50.0 °F 72% 29.29 in 10.0 mi East 16.1 mph 25.3 mph N/A   Scattered Clouds
4:13 PM 60.8 °F - 51.8 °F 72% 29.27 in 10.0 mi ESE 16.1 mph 26.5 mph N/A   Mostly Cloudy
4:33 PM 59.0 °F - 51.8 °F 77% 29.25 in 10.0 mi ESE 17.3 mph 27.6 mph N/A Thunderstorm Thunderstorm
4:53 PM 60.8 °F - 51.8 °F 72% 29.26 in 10.0 mi ESE 16.1 mph 20.7 mph N/A Rain , Thunderstorm Light Thunderstorms and Rain
5:13 PM 60.8 °F - 51.8 °F 72% 29.28 in 10.0 mi South 17.3 mph - N/A Thunderstorm Thunderstorm
5:33 PM 60.8 °F - 44.6 °F 55% 29.29 in 10.0 mi SW 19.6 mph - N/A   Scattered Clouds
5:53 PM 57.2 °F - 42.8 °F 59% 29.28 in 10.0 mi South 13.8 mph 19.6 mph N/A   Clear
6:13 PM 57.2 °F - 42.8 °F 59% 29.27 in 10.0 mi SSE 13.8 mph 18.4 mph N/A Thunderstorm Clear
6:33 PM 53.6 °F - 42.8 °F 67% 29.28 in 10.0 mi South 15.0 mph 20.7 mph N/A   Clear
6:53 PM 51.8 °F - 41.0 °F 67% 29.27 in 10.0 mi South 11.5 mph 19.6 mph N/A   Clear
7:13 PM 50.0 °F - 39.2 °F 66% 29.28 in 10.0 mi SSW 18.4 mph 24.2 mph N/A   Clear
7:33 PM 46.4 °F 40.4 °F 37.4 °F 71% 29.28 in 10.0 mi South 13.8 mph 19.6 mph N/A   Clear
7:53 PM 42.8 °F 36.2 °F 35.6 °F 76% 29.29 in 10.0 mi South 12.7 mph - N/A   Mostly Cloudy
8:13 PM 42.8 °F 35.1 °F 35.6 °F 76% 29.30 in 10.0 mi SSE 16.1 mph - N/A   Mostly Cloudy
8:32 PM 41.0 °F 32.8 °F 35.6 °F 81% 29.30 in 10.0 mi SSE 16.1 mph 20.7 mph N/A   Overcast
8:53 PM 39.2 °F 30.2 °F 33.8 °F 81% 29.30 in 10.0 mi SE 17.3 mph - N/A   Overcast
9:13 PM 39.2 °F 30.8 °F 35.6 °F 87% 29.30 in 10.0 mi SE 15.0 mph - N/A   Overcast
9:33 PM 37.4 °F 28.9 °F 33.8 °F 87% 29.29 in 10.0 mi SE 13.8 mph - N/A   Overcast
9:53 PM 37.4 °F 32.8 °F 33.8 °F 87% 29.31 in 10.0 mi East 5.8 mph - N/A   Overcast
10:13 PM 35.6 °F 31.7 °F 33.8 °F 93% 29.32 in 10.0 mi North 4.6 mph - N/A   Overcast
10:33 PM 35.6 °F 28.6 °F 33.8 °F 93% 29.34 in 7.0 mi NNW 9.2 mph - N/A   Overcast
10:53 PM 33.8 °F 21.6 °F 32.0 °F 93% 29.36 in 10.0 mi WNW 23.0 mph 34.5 mph N/A   Overcast
11:13 PM 32.0 °F 17.6 °F 28.4 °F 87% 29.39 in 10.0 mi WNW 29.9 mph 39.1 mph N/A   Overcast
11:33 PM 30.2 °F 15.2 °F 28.4 °F 93% 29.41 in 7.0 mi WNW 29.9 mph 36.8 mph N/A   Overcast
11:53 PM 30.2 °F 14.9 °F 28.4 °F 93% 29.45 in 4.0 mi WNW 31.1 mph 42.6 mph N/A   Overcast